This is the latest recevied weather packets stored in our database for station/object DH2PG-6. If no packets are shown the sender has not sent any weather packets the latest 10 day(s).
| Time | Temp. | Humidity | Pressure | Rain* | Wind** | Luminosity | Snow |
|---|---|---|---|---|---|---|---|
| 1788356576 | 20.56° C | 52% | 1018.2 hPa | 0 mm | - | - | - |
| 1788356276 | 20.56° C | 52% | 1018.2 hPa | 0 mm | - | - | - |
| 1788355988 | 20.56° C | 52% | 1018.2 hPa | 0 mm | - | - | - |
| 1788355675 | 20.56° C | 52% | 1018.3 hPa | 0 mm | - | - | - |
| 1788355375 | 21.11° C | 52% | 1018.3 hPa | 0 mm | - | - | - |
| 1788354474 | 20.56° C | 53% | 1018.5 hPa | 0 mm | - | - | - |
| 1788354174 | 20.56° C | 54% | 1018.4 hPa | 0 mm | - | - | - |
| 1788353874 | 20.56° C | 54% | 1018.3 hPa | 0 mm | - | - | - |
| 1788353574 | 21.11° C | 53% | 1018.4 hPa | 0 mm | - | - | - |
| 1788353273 | 21.11° C | 53% | 1018.4 hPa | 0 mm | - | - | - |
| 1788352673 | 20.56° C | 54% | 1018.5 hPa | 0 mm | - | - | - |
| 1788352372 | 20.56° C | 54% | 1018.4 hPa | 0 mm | - | - | - |
| 1788351788 | 20.56° C | 55% | 1018.5 hPa | 0 mm | - | - | - |
| 1788351171 | 21.11° C | 55% | 1018.5 hPa | 0 mm | - | - | - |
| 1788350571 | 20° C | 56% | 1018.4 hPa | 0 mm | - | - | - |
| 1788350270 | 20° C | 57% | 1018.3 hPa | 0 mm | - | - | - |
| 1788349970 | 19.44° C | 60% | 1018.4 hPa | 0 mm | - | - | - |
| 1788349670 | 19.44° C | 59% | 1018.3 hPa | 0 mm | - | - | - |
| 1788349370 | 19.44° C | 59% | 1018.2 hPa | 0 mm | - | - | - |
| 1788349069 | 19.44° C | 59% | 1018.3 hPa | 0 mm | - | - | - |
| 1788348769 | 19.44° C | 61% | 1018.6 hPa | 0 mm | - | - | - |
| 1788348168 | 19.44° C | 60% | 1018.6 hPa | 0 mm | - | - | - |
| 1788347568 | 19.44° C | 58% | 1018.7 hPa | 0 mm | - | - | - |
| 1788347268 | 19.44° C | 60% | 1018.7 hPa | 0 mm | - | - | - |
| 1788346967 | 19.44° C | 60% | 1018.6 hPa | 0 mm | - | - | - |
* Rain latest hour (hover to see other rain measurements)
** Current wind speed in m/s (hover to see current wind gust speed)